Location: downtown San Diego
(32.7310°N, 117.1990°W)
Time: 14:37:07
(UTC-07:00)

Cosmos 1626 Rocket - Pass Details

Date: 14 June 2018
Orbit: 603 x 631 km, 82.5° (Epoch: 20 August)

Event Time Altitude Azimuth Distance (km) Brightness Sun altitude
Exits shadow 21:34:09 - 197° (SSW) 2,162 6.1 -17.2°
Reaches altitude 10° 21:34:33 10° 198° (SSW) 2,001 5.9 -17.2°
Maximum altitude 21:38:56 59° 278° (W) 731 4.1 -17.9°
Drops below altitude 10° 21:43:21 10° 358° (N) 2,015 6.8 -18.5°
Sets 21:45:38 0° 2° (N) 2,925 7.7 -18.9°
